Location: Emblem
(62.4273°N, 6.4710°E)
Time: 07:32:55
(UTC+02:00)

Transit 2A - Pass Details

Date: 07 March 2024
Orbit: 596 x 956 km, 66.7° (Epoch: 24 April)

Event Time Altitude Azimuth Distance (km) Brightness Sun altitude
Rises 21:16:19 0° 269° (W) 2,863 9.9 -21.0°
Reaches altitude 10° 21:18:34 10° 275° (W) 1,981 9.0 -21.2°
Maximum altitude 21:22:54 52° 352° (N) 808 6.3 -21.6°
Enters shadow 21:25:09 28° 56° (NE) 1,254 6.9 -21.8°
